Date;H [cm]
01.01.2013;522
02.01.2013;532
03.01.2013;536
04.01.2013;532
05.01.2013;528
06.01.2013;526
07.01.2013;529
08.01.2013;534
09.01.2013;517
10.01.2013;505
11.01.2013;511
12.01.2013;517
13.01.2013;518
14.01.2013;510
15.01.2013;514
16.01.2013;500
17.01.2013;494
18.01.2013;493
19.01.2013;501
20.01.2013;495
21.01.2013;493
22.01.2013;497
23.01.2013;496
24.01.2013;497
25.01.2013;501
26.01.2013;492
27.01.2013;493
28.01.2013;494
29.01.2013;495
30.01.2013;516
31.01.2013;515
01.02.2013;511
02.02.2013;520
03.02.2013;518
04.02.2013;528
05.02.2013;532
06.02.2013;529
07.02.2013;525
08.02.2013;534
09.02.2013;536
10.02.2013;532
11.02.2013;512
12.02.2013;511
13.02.2013;508
14.02.2013;502
15.02.2013;500
16.02.2013;500
17.02.2013;509
18.02.2013;489
19.02.2013;483
20.02.2013;493
21.02.2013;495
22.02.2013;486
23.02.2013;482
24.02.2013;485
25.02.2013;488
26.02.2013;493
27.02.2013;499
28.02.2013;512
01.03.2013;501
02.03.2013;516
03.03.2013;499
04.03.2013;503
05.03.2013;504
06.03.2013;499
07.03.2013;486
08.03.2013;480
09.03.2013;465
10.03.2013;470
11.03.2013;479
12.03.2013;486
13.03.2013;483
14.03.2013;484
15.03.2013;486
16.03.2013;481
17.03.2013;461
18.03.2013;449
19.03.2013;449
20.03.2013;456
21.03.2013;453
22.03.2013;465
23.03.2013;462
24.03.2013;463
25.03.2013;464
26.03.2013;463
27.03.2013;463
28.03.2013;459
29.03.2013;463
30.03.2013;472
31.03.2013;466
01.04.2013;480
02.04.2013;481
03.04.2013;476
04.04.2013;477
05.04.2013;484
06.04.2013;491
07.04.2013;494
08.04.2013;488
09.04.2013;479
10.04.2013;481
11.04.2013;477
12.04.2013;493
13.04.2013;494
14.04.2013;481
15.04.2013;480
16.04.2013;492
17.04.2013;491
18.04.2013;506
19.04.2013;509
20.04.2013;502
21.04.2013;495
22.04.2013;502
23.04.2013;521
24.04.2013;517
25.04.2013;514
26.04.2013;514
27.04.2013;511
28.04.2013;507
29.04.2013;522
30.04.2013;519
01.05.2013;516
02.05.2013;511
03.05.2013;508
04.05.2013;516
05.05.2013;511
06.05.2013;507
07.05.2013;502
08.05.2013;506
09.05.2013;509
10.05.2013;510
11.05.2013;506
12.05.2013;507
13.05.2013;505
14.05.2013;503
15.05.2013;497
16.05.2013;497
17.05.2013;497
18.05.2013;500
19.05.2013;498
20.05.2013;500
21.05.2013;504
22.05.2013;507
23.05.2013;505
24.05.2013;500
25.05.2013;506
26.05.2013;501
27.05.2013;501
28.05.2013;502
29.05.2013;501
30.05.2013;497
31.05.2013;499
01.06.2013;503
02.06.2013;507
03.06.2013;510
04.06.2013;511
05.06.2013;509
06.06.2013;507
07.06.2013;506
08.06.2013;510
09.06.2013;510
10.06.2013;518
11.06.2013;514
12.06.2013;512
13.06.2013;514
14.06.2013;521
15.06.2013;516
16.06.2013;526
17.06.2013;522
18.06.2013;515
19.06.2013;508
20.06.2013;508
21.06.2013;517
22.06.2013;509
23.06.2013;510
24.06.2013;508
25.06.2013;512
26.06.2013;526
27.06.2013;519
28.06.2013;516
29.06.2013;518
30.06.2013;522
01.07.2013;526
02.07.2013;519
03.07.2013;515
04.07.2013;522
05.07.2013;529
06.07.2013;526
07.07.2013;528
08.07.2013;522
09.07.2013;522
10.07.2013;527
11.07.2013;521
12.07.2013;515
13.07.2013;522
14.07.2013;528
15.07.2013;536
16.07.2013;534
17.07.2013;538
18.07.2013;542
19.07.2013;540
20.07.2013;535
21.07.2013;533
22.07.2013;528
23.07.2013;523
24.07.2013;516
25.07.2013;515
26.07.2013;513
27.07.2013;507
28.07.2013;507
29.07.2013;509
30.07.2013;518
31.07.2013;526
01.08.2013;527
02.08.2013;519
03.08.2013;517
04.08.2013;520
05.08.2013;512
06.08.2013;512
07.08.2013;518
08.08.2013;527
09.08.2013;527
10.08.2013;529
11.08.2013;541
12.08.2013;536
13.08.2013;544
14.08.2013;548
15.08.2013;539
16.08.2013;530
17.08.2013;525
18.08.2013;529
19.08.2013;530
20.08.2013;535
21.08.2013;537
22.08.2013;528
23.08.2013;520
24.08.2013;516
25.08.2013;513
26.08.2013;509
27.08.2013;509
28.08.2013;516
29.08.2013;518
30.08.2013;519
31.08.2013;534
01.09.2013;540
02.09.2013;525
03.09.2013;531
04.09.2013;527
05.09.2013;522
06.09.2013;518
07.09.2013;516
08.09.2013;510
09.09.2013;515
10.09.2013;514
11.09.2013;512
12.09.2013;512
13.09.2013;504
14.09.2013;504
15.09.2013;507
16.09.2013;507
17.09.2013;513
18.09.2013;515
19.09.2013;517
20.09.2013;520
21.09.2013;532
22.09.2013;544
23.09.2013;533
24.09.2013;531
25.09.2013;529
26.09.2013;536
27.09.2013;521
28.09.2013;517
29.09.2013;512
30.09.2013;504
01.10.2013;503
02.10.2013;505
03.10.2013;502
04.10.2013;494
05.10.2013;502
06.10.2013;509
07.10.2013;512
08.10.2013;519
09.10.2013;509
10.10.2013;512
11.10.2013;506
12.10.2013;503
13.10.2013;503
14.10.2013;503
15.10.2013;503
16.10.2013;506
17.10.2013;516
18.10.2013;528
19.10.2013;504
20.10.2013;492
21.10.2013;490
22.10.2013;488
23.10.2013;507
24.10.2013;525
25.10.2013;517
26.10.2013;519
27.10.2013;527
28.10.2013;563
29.10.2013;551
30.10.2013;546
31.10.2013;546
01.11.2013;536
02.11.2013;534
03.11.2013;551
04.11.2013;544
05.11.2013;548
06.11.2013;547
07.11.2013;557
08.11.2013;541
09.11.2013;567
10.11.2013;552
11.11.2013;557
12.11.2013;561
13.11.2013;559
14.11.2013;554
15.11.2013;575
16.11.2013;573
17.11.2013;551
18.11.2013;548
19.11.2013;546
20.11.2013;549
21.11.2013;546
22.11.2013;539
23.11.2013;545
24.11.2013;541
25.11.2013;533
26.11.2013;554
27.11.2013;565
28.11.2013;555
29.11.2013;537
30.11.2013;570
01.12.2013;557
02.12.2013;571
03.12.2013;558
04.12.2013;568
05.12.2013;568
06.12.2013;578
07.12.2013;575
08.12.2013;557
09.12.2013;559
10.12.2013;566
11.12.2013;568
12.12.2013;582
13.12.2013;557
14.12.2013;553
15.12.2013;558
16.12.2013;561
17.12.2013;560
18.12.2013;545
19.12.2013;549
20.12.2013;563
21.12.2013;572
22.12.2013;576
23.12.2013;564
24.12.2013;544
25.12.2013;544
26.12.2013;549
27.12.2013;544
28.12.2013;543
29.12.2013;566
30.12.2013;559
31.12.2013;543
01.01.2014;537
02.01.2014;533
03.01.2014;538
04.01.2014;530
05.01.2014;539
06.01.2014;537
07.01.2014;549
08.01.2014;549
09.01.2014;560
10.01.2014;567
11.01.2014;560
12.01.2014;558
13.01.2014;546
14.01.2014;535
15.01.2014;526
16.01.2014;516
17.01.2014;505
18.01.2014;497
19.01.2014;481
20.01.2014;486
21.01.2014;487
22.01.2014;486
23.01.2014;482
24.01.2014;479
25.01.2014;467
26.01.2014;456
27.01.2014;451
28.01.2014;439
29.01.2014;448
30.01.2014;455
31.01.2014;465
01.02.2014;464
02.02.2014;470
03.02.2014;466
04.02.2014;471
05.02.2014;477
06.02.2014;475
07.02.2014;484
08.02.2014;476
09.02.2014;482
10.02.2014;483
11.02.2014;497
12.02.2014;493
13.02.2014;488
14.02.2014;493
15.02.2014;493
16.02.2014;520
17.02.2014;518
18.02.2014;507
19.02.2014;512
20.02.2014;500
21.02.2014;505
22.02.2014;509
23.02.2014;503
24.02.2014;493
25.02.2014;499
26.02.2014;503
27.02.2014;500
28.02.2014;500
01.03.2014;501
02.03.2014;498
03.03.2014;493
04.03.2014;490
05.03.2014;494
06.03.2014;491
07.03.2014;498
08.03.2014;505
09.03.2014;511
10.03.2014;508
11.03.2014;509
12.03.2014;510
13.03.2014;514
14.03.2014;539
15.03.2014;534
16.03.2014;532
17.03.2014;529
18.03.2014;534
19.03.2014;535
20.03.2014;545
21.03.2014;537
22.03.2014;534
23.03.2014;531
24.03.2014;516
25.03.2014;526
26.03.2014;523
27.03.2014;521
28.03.2014;517
29.03.2014;519
30.03.2014;515
31.03.2014;515
01.04.2014;508
02.04.2014;506
03.04.2014;502
04.04.2014;497
05.04.2014;503
06.04.2014;503
07.04.2014;501
08.04.2014;505
09.04.2014;500
10.04.2014;503
11.04.2014;510
12.04.2014;514
13.04.2014;522
14.04.2014;527
15.04.2014;527
16.04.2014;523
17.04.2014;512
18.04.2014;520
19.04.2014;515
20.04.2014;513
21.04.2014;513
22.04.2014;507
23.04.2014;498
24.04.2014;499
25.04.2014;498
26.04.2014;498
27.04.2014;499
28.04.2014;502
29.04.2014;499
30.04.2014;509
01.05.2014;505
02.05.2014;507
03.05.2014;511
04.05.2014;514
05.05.2014;506
06.05.2014;492
07.05.2014;509
08.05.2014;503
09.05.2014;510
10.05.2014;510
11.05.2014;515
12.05.2014;518
13.05.2014;522
14.05.2014;518
15.05.2014;511
16.05.2014;509
17.05.2014;506
18.05.2014;511
19.05.2014;507
20.05.2014;507
21.05.2014;500
22.05.2014;496
23.05.2014;499
24.05.2014;503
25.05.2014;508
26.05.2014;502
27.05.2014;487
28.05.2014;494
29.05.2014;497
30.05.2014;500
31.05.2014;500
01.06.2014;498
02.06.2014;498
03.06.2014;498
04.06.2014;497
05.06.2014;499
06.06.2014;496
07.06.2014;500
08.06.2014;502
09.06.2014;505
10.06.2014;500
11.06.2014;506
12.06.2014;515
13.06.2014;515
14.06.2014;511
15.06.2014;515
16.06.2014;522
17.06.2014;521
18.06.2014;519
19.06.2014;523
20.06.2014;525
21.06.2014;525
22.06.2014;538
23.06.2014;530
24.06.2014;528
25.06.2014;523
26.06.2014;520
27.06.2014;513
28.06.2014;514
29.06.2014;520
30.06.2014;522
01.07.2014;525
02.07.2014;531
03.07.2014;531
04.07.2014;520
05.07.2014;519
06.07.2014;516
07.07.2014;514
08.07.2014;511
09.07.2014;508
10.07.2014;496
11.07.2014;494
12.07.2014;500
13.07.2014;503
14.07.2014;509
15.07.2014;511
16.07.2014;512
17.07.2014;509
18.07.2014;506
19.07.2014;501
20.07.2014;496
21.07.2014;492
22.07.2014;490
23.07.2014;490
24.07.2014;492
25.07.2014; ---
26.07.2014; ---
27.07.2014; ---
28.07.2014; ---
29.07.2014; ---
30.07.2014; ---
31.07.2014; ---
01.08.2014; ---
02.08.2014; ---
03.08.2014; ---
04.08.2014; ---
05.08.2014; ---
06.08.2014; ---
07.08.2014; ---
08.08.2014; ---
09.08.2014; ---
10.08.2014;503
11.08.2014; ---
12.08.2014;514
13.08.2014; ---
14.08.2014;518
15.08.2014;528
16.08.2014;533
17.08.2014;536
18.08.2014;545
19.08.2014;543
20.08.2014;554
21.08.2014;551
22.08.2014;542
23.08.2014;543
24.08.2014;549
25.08.2014;562
26.08.2014;562
27.08.2014;558
28.08.2014;546
29.08.2014;536
30.08.2014;525
31.08.2014;520
01.09.2014;518
02.09.2014;518
03.09.2014;516
04.09.2014;512
05.09.2014;512
06.09.2014;509
07.09.2014;509
08.09.2014;514
09.09.2014;515
10.09.2014;517
11.09.2014;513
12.09.2014;508
13.09.2014;500
14.09.2014;500
15.09.2014;499
16.09.2014;496
17.09.2014;494
18.09.2014;493
19.09.2014;496
20.09.2014;497
21.09.2014;511
22.09.2014;515
23.09.2014;515
24.09.2014;517
25.09.2014;520
26.09.2014;537
27.09.2014;537
28.09.2014;535
29.09.2014;531
30.09.2014;520
01.10.2014;516
02.10.2014;519
03.10.2014;517
04.10.2014;506
05.10.2014;491
06.10.2014;485
07.10.2014;495
08.10.2014;497
09.10.2014;507
10.10.2014;508
11.10.2014;504
12.10.2014;511
13.10.2014;502
14.10.2014;496
15.10.2014;495
16.10.2014;496
17.10.2014;499
18.10.2014;503
19.10.2014;520
20.10.2014;512
21.10.2014;488
22.10.2014;491
23.10.2014;490
24.10.2014;500
25.10.2014;510
26.10.2014;527
27.10.2014;534
28.10.2014;528
29.10.2014;526
30.10.2014;526
31.10.2014;520
01.11.2014;518
02.11.2014;519
03.11.2014;518
04.11.2014;521
05.11.2014;517
06.11.2014;529
07.11.2014;525
08.11.2014;515
09.11.2014;508
10.11.2014;514
11.11.2014;505
12.11.2014;503
13.11.2014;498
14.11.2014;492
15.11.2014;480
16.11.2014;481
17.11.2014;481
18.11.2014;479
19.11.2014;485
20.11.2014;490
21.11.2014;495
22.11.2014;490
23.11.2014;478
24.11.2014;486
25.11.2014;494
26.11.2014;492
27.11.2014;484
28.11.2014;481
29.11.2014;476
30.11.2014;474
01.12.2014;471
02.12.2014;480
03.12.2014;491
04.12.2014;480
05.12.2014;489
06.12.2014;494
07.12.2014;493
08.12.2014;505
09.12.2014;510
10.12.2014;503
11.12.2014;509
12.12.2014;548
13.12.2014;539
14.12.2014;523
15.12.2014;526
16.12.2014;537
17.12.2014;537
18.12.2014;546
19.12.2014;567
20.12.2014;562
21.12.2014;563
22.12.2014;573
23.12.2014;567
24.12.2014;564
25.12.2014;569
26.12.2014;566
27.12.2014;546
28.12.2014;538
29.12.2014;549
30.12.2014;550
31.12.2014;555
01.01.2015;580
02.01.2015;602
03.01.2015;587
04.01.2015;566
05.01.2015;548
06.01.2015;542
07.01.2015;559
08.01.2015;561
09.01.2015;559
10.01.2015;610
11.01.2015;586
12.01.2015;595
13.01.2015;583
14.01.2015;581
15.01.2015;567
16.01.2015;565
17.01.2015;583
18.01.2015;569
19.01.2015;551
20.01.2015;540
21.01.2015;549
22.01.2015;550
23.01.2015;545
24.01.2015;536
25.01.2015;542
26.01.2015;535
27.01.2015;546
28.01.2015;536
29.01.2015;529
30.01.2015;530
31.01.2015;556
01.02.2015;557
02.02.2015;550
03.02.2015;545
04.02.2015;539
05.02.2015;548
06.02.2015;547
07.02.2015;549
08.02.2015;544
09.02.2015;539
10.02.2015;535
11.02.2015;547
12.02.2015;532
13.02.2015;526
14.02.2015;506
15.02.2015;498
16.02.2015;505
17.02.2015;527
18.02.2015;528
19.02.2015;533
20.02.2015;521
21.02.2015;538
22.02.2015;522
23.02.2015;513
24.02.2015;517
25.02.2015;516
26.02.2015;506
27.02.2015;510
28.02.2015;508
01.03.2015;502
02.03.2015;526
03.03.2015;530
04.03.2015;525
05.03.2015;529
06.03.2015;527
07.03.2015;538
08.03.2015;532
09.03.2015;530
10.03.2015;531
11.03.2015;524
12.03.2015;508
13.03.2015;508
14.03.2015;508
15.03.2015;504
16.03.2015;500
17.03.2015;499
18.03.2015;499
19.03.2015;500
20.03.2015;493
21.03.2015;491
22.03.2015;513
23.03.2015;513
24.03.2015;501
25.03.2015;475
26.03.2015;482
27.03.2015;494
28.03.2015;489
29.03.2015;484
30.03.2015;515
31.03.2015;506
01.04.2015;518
02.04.2015;521
03.04.2015;522
04.04.2015;520
05.04.2015;513
06.04.2015;523
07.04.2015;521
08.04.2015;527
09.04.2015;521
10.04.2015;515
11.04.2015;529
12.04.2015;526
13.04.2015;535
14.04.2015;532
15.04.2015;540
16.04.2015;539
17.04.2015;533
18.04.2015;530
19.04.2015;526
20.04.2015;523
21.04.2015;524
22.04.2015;530
23.04.2015;528
24.04.2015;521
25.04.2015;522
26.04.2015;520
27.04.2015;523
28.04.2015;534
29.04.2015;523
30.04.2015;513
01.05.2015;529
02.05.2015;524
03.05.2015;508
04.05.2015;511
05.05.2015;511
06.05.2015;510
07.05.2015;519
08.05.2015;517
09.05.2015;513
10.05.2015;521
11.05.2015;509
12.05.2015;534
13.05.2015;529
14.05.2015;531
15.05.2015;533
16.05.2015;535
17.05.2015;544
18.05.2015;525
19.05.2015;526
20.05.2015;525
21.05.2015;524
22.05.2015;523
23.05.2015;527
24.05.2015;524
25.05.2015;523
26.05.2015;530
27.05.2015;529
28.05.2015;528
29.05.2015;522
30.05.2015;539
31.05.2015;525
01.06.2015;523
02.06.2015;535
03.06.2015;543
04.06.2015;536
05.06.2015;525
06.06.2015;535
07.06.2015;537
08.06.2015;531
09.06.2015;528
10.06.2015;530
11.06.2015;526
12.06.2015;520
13.06.2015;525
14.06.2015;534
15.06.2015;532
16.06.2015;531
17.06.2015;533
18.06.2015;536
19.06.2015;534
20.06.2015;534
21.06.2015;532
22.06.2015;526
23.06.2015;538
24.06.2015;543
25.06.2015;543
26.06.2015;538
27.06.2015;535
28.06.2015;531
29.06.2015;534
30.06.2015;534
01.07.2015;527
02.07.2015;521
03.07.2015;521
04.07.2015;519
05.07.2015;520
06.07.2015;544
07.07.2015;527
08.07.2015;542
09.07.2015;549
10.07.2015;544
11.07.2015;539
12.07.2015;534
13.07.2015;533
14.07.2015;536
15.07.2015;539
16.07.2015;543
17.07.2015;531
18.07.2015;538
19.07.2015;537
20.07.2015;536
21.07.2015;543
22.07.2015;538
23.07.2015;546
24.07.2015;528
25.07.2015;541
26.07.2015;543
27.07.2015;531
28.07.2015;544
29.07.2015;543
30.07.2015;551
31.07.2015;552
01.08.2015;544
02.08.2015;539
03.08.2015;528
04.08.2015;526
05.08.2015;528
06.08.2015;522
07.08.2015;522
08.08.2015;527
09.08.2015;525
10.08.2015;522
11.08.2015;525
12.08.2015;524
13.08.2015;513
14.08.2015;508
15.08.2015;504
16.08.2015;496
17.08.2015;496
18.08.2015;492
19.08.2015;491
20.08.2015; ---
21.08.2015; ---
22.08.2015; ---
23.08.2015;488
24.08.2015;486
25.08.2015; ---
26.08.2015;492
27.08.2015;497
28.08.2015;521
29.08.2015;513
30.08.2015;508
31.08.2015;496
01.09.2015;511
02.09.2015;513
03.09.2015;510
04.09.2015;517
05.09.2015;524
06.09.2015;534
07.09.2015;529
08.09.2015;522
09.09.2015;519
10.09.2015;511
11.09.2015;504
12.09.2015;498
13.09.2015;492
14.09.2015;493
15.09.2015;494
16.09.2015;493
17.09.2015;517
18.09.2015;525
19.09.2015;516
20.09.2015;514
21.09.2015;516
22.09.2015;507
23.09.2015;514
24.09.2015;514
25.09.2015;518
26.09.2015;521
27.09.2015;523
28.09.2015;514
29.09.2015;519
30.09.2015;524
01.10.2015;541
02.10.2015;527
03.10.2015;520
04.10.2015;520
05.10.2015;503
06.10.2015;496
07.10.2015;496
08.10.2015;496
09.10.2015;496
10.10.2015;490
11.10.2015;489
12.10.2015;483
13.10.2015;484
14.10.2015;480
15.10.2015;475
16.10.2015;482
17.10.2015;486
18.10.2015;487
19.10.2015;485
20.10.2015;488
21.10.2015;495
22.10.2015;512
23.10.2015;511
24.10.2015;508
25.10.2015;524
26.10.2015;521
27.10.2015;502
28.10.2015;501
29.10.2015;502
30.10.2015;499
31.10.2015;509
01.11.2015;513
02.11.2015;510
03.11.2015;517
04.11.2015;511
05.11.2015;506
06.11.2015;505
07.11.2015;525
08.11.2015;518
09.11.2015;538
10.11.2015;540
11.11.2015;541
12.11.2015;538
13.11.2015;549
14.11.2015;552
15.11.2015;547
16.11.2015;544
17.11.2015;548
18.11.2015;565
19.11.2015;564
20.11.2015;567
21.11.2015;561
22.11.2015;555
23.11.2015;557
24.11.2015;546
25.11.2015;539
26.11.2015;562
27.11.2015;548
28.11.2015;548
29.11.2015;578
30.11.2015;580
01.12.2015;576
02.12.2015;565
03.12.2015;567
04.12.2015;608
05.12.2015;619
06.12.2015;625
07.12.2015;576
08.12.2015;570
09.12.2015;588
10.12.2015;585
11.12.2015;585
12.12.2015;574
13.12.2015;577
14.12.2015;565
15.12.2015;573
16.12.2015;558
17.12.2015;559
18.12.2015;573
19.12.2015;564
20.12.2015;570
21.12.2015;579
22.12.2015;580
23.12.2015;591
24.12.2015;583
25.12.2015;589
26.12.2015;571
27.12.2015;548
28.12.2015;552
29.12.2015;544
30.12.2015;532
31.12.2015;523
01.01.2016;518
02.01.2016;528
03.01.2016;516
04.01.2016;518
05.01.2016;513
06.01.2016;504
07.01.2016;489
08.01.2016;499
09.01.2016;494
10.01.2016;489
11.01.2016;497
12.01.2016;508
13.01.2016;516
14.01.2016;502
15.01.2016;501
16.01.2016;503
17.01.2016;516
18.01.2016;508
19.01.2016;503
20.01.2016;507
21.01.2016;503
22.01.2016;497
23.01.2016;505
24.01.2016;505
25.01.2016;511
26.01.2016;521
27.01.2016;542
28.01.2016;552
29.01.2016;550
30.01.2016;544
31.01.2016;545
01.02.2016;569
02.02.2016;581
03.02.2016;560
04.02.2016;567
05.02.2016;549
06.02.2016;541
07.02.2016;536
08.02.2016;539
09.02.2016;537
10.02.2016;543
11.02.2016;554
12.02.2016;540
13.02.2016;532
14.02.2016;534
15.02.2016;534
16.02.2016;529
17.02.2016;512
18.02.2016;518
19.02.2016;518
20.02.2016;515
21.02.2016;533
22.02.2016;540
23.02.2016;541
24.02.2016;544
25.02.2016;547
26.02.2016;546
27.02.2016;538
28.02.2016;529
29.02.2016;514
01.03.2016;512
02.03.2016;510
03.03.2016;512
04.03.2016;509
05.03.2016;503
06.03.2016;510
07.03.2016;506
08.03.2016;507
09.03.2016;499
10.03.2016;495
11.03.2016;494
12.03.2016;496
13.03.2016;500
14.03.2016;489
15.03.2016;497
16.03.2016;499
17.03.2016;499
18.03.2016;498
19.03.2016;495
20.03.2016;501
21.03.2016;497
22.03.2016;496
23.03.2016;504
24.03.2016;501
25.03.2016;505
26.03.2016;499
27.03.2016;493
28.03.2016;495
29.03.2016;505
30.03.2016;509
31.03.2016;514
01.04.2016;514
02.04.2016;509
03.04.2016;502
04.04.2016;501
05.04.2016;510
06.04.2016;507
07.04.2016;511
08.04.2016;512
09.04.2016;509
10.04.2016;504
11.04.2016;499
12.04.2016;497
13.04.2016;500
14.04.2016;498
15.04.2016;491
16.04.2016;499
17.04.2016;517
18.04.2016;523
19.04.2016;527
20.04.2016;521
21.04.2016;524
22.04.2016;524
23.04.2016;519
24.04.2016;525
25.04.2016;517
26.04.2016;517
27.04.2016;513
28.04.2016;514
29.04.2016;507
30.04.2016;507
01.05.2016;508
02.05.2016;502
03.05.2016;507
04.05.2016;509
05.05.2016;506
06.05.2016;502
07.05.2016;500
08.05.2016;499
09.05.2016;499
10.05.2016;499
11.05.2016;488
12.05.2016;491
13.05.2016;499
14.05.2016;510
15.05.2016;515
16.05.2016;517
17.05.2016;516
18.05.2016;514
19.05.2016;513
20.05.2016;517
21.05.2016;515
22.05.2016;505
23.05.2016;508
24.05.2016;515
25.05.2016;521
26.05.2016;513
27.05.2016;507
28.05.2016;501
29.05.2016;500
30.05.2016;498
31.05.2016;496
01.06.2016; ---
02.06.2016; ---
03.06.2016;496
04.06.2016;494
05.06.2016;488
06.06.2016; ---
07.06.2016;504
08.06.2016; ---
09.06.2016;497
10.06.2016; ---
11.06.2016; ---
12.06.2016; ---
13.06.2016;483
14.06.2016;486
15.06.2016;492
16.06.2016;491
17.06.2016;518
18.06.2016;513
19.06.2016;508
20.06.2016;502
21.06.2016;506
22.06.2016;504
23.06.2016;506
24.06.2016;504
25.06.2016;509
26.06.2016;515
27.06.2016;511
28.06.2016;509
29.06.2016;512
30.06.2016;506
01.07.2016;503
02.07.2016;513
03.07.2016;518
04.07.2016;527
05.07.2016;525
06.07.2016;537
07.07.2016;538
08.07.2016;532
09.07.2016;539
10.07.2016;532
11.07.2016;544
12.07.2016;540
13.07.2016;535
14.07.2016;533
15.07.2016;550
16.07.2016;544
17.07.2016;544
18.07.2016;544
19.07.2016;541
20.07.2016;536
21.07.2016;530
22.07.2016;527
23.07.2016;524
24.07.2016;520
25.07.2016;519
26.07.2016;521
27.07.2016;518
28.07.2016;519
29.07.2016;522
30.07.2016;529
31.07.2016;527
01.08.2016;534
02.08.2016;531
03.08.2016;529
04.08.2016;530
05.08.2016;532
06.08.2016;541
07.08.2016;544
08.08.2016;554
09.08.2016;549
10.08.2016;557
11.08.2016;550
12.08.2016;553
13.08.2016;555
14.08.2016;559
15.08.2016;557
16.08.2016;552
17.08.2016;541
18.08.2016;543
19.08.2016;537
20.08.2016;531
21.08.2016;536
22.08.2016;533
23.08.2016;535
24.08.2016;532
25.08.2016;531
26.08.2016;533
27.08.2016;525
28.08.2016;528
29.08.2016;549
30.08.2016;534
31.08.2016;534
01.09.2016;540
02.09.2016;540
03.09.2016;545
04.09.2016;539
05.09.2016;536
06.09.2016;545
07.09.2016;535
08.09.2016;527
09.09.2016;529
10.09.2016;527
11.09.2016;531
12.09.2016;527
13.09.2016;523
14.09.2016;522
15.09.2016;518
16.09.2016;509
17.09.2016;507
18.09.2016;509
19.09.2016;506
20.09.2016;506
21.09.2016;506
22.09.2016;509
23.09.2016;513
24.09.2016;510
25.09.2016;510
26.09.2016;510
27.09.2016;517
28.09.2016;528
29.09.2016;558
30.09.2016;547
01.10.2016;526
02.10.2016;522
03.10.2016;508
04.10.2016;479
05.10.2016;469
06.10.2016;481
07.10.2016;475
08.10.2016;480
09.10.2016;478
10.10.2016;476
11.10.2016;479
12.10.2016;480
13.10.2016;476
14.10.2016;463
15.10.2016;466
16.10.2016;466
17.10.2016;464
18.10.2016;464
19.10.2016;465
20.10.2016;460
21.10.2016;457
22.10.2016;460
23.10.2016;464
24.10.2016;472
25.10.2016;484
26.10.2016;489
27.10.2016;504
28.10.2016;511
29.10.2016;507
30.10.2016;503
31.10.2016;497
01.11.2016;505
02.11.2016;506
03.11.2016;512
04.11.2016;500
05.11.2016;474
06.11.2016;488
07.11.2016;506
08.11.2016;498
09.11.2016;489
10.11.2016;498
11.11.2016;501
12.11.2016;495
13.11.2016;497
14.11.2016;494
15.11.2016;498
16.11.2016;500
17.11.2016;498
18.11.2016;508
19.11.2016;504
20.11.2016;496
21.11.2016;494
22.11.2016;500
23.11.2016;524
24.11.2016;519
25.11.2016;536
26.11.2016;533
27.11.2016;521
28.11.2016;525
29.11.2016;536
30.11.2016;537
01.12.2016;534
02.12.2016;537
03.12.2016;529
04.12.2016;559
05.12.2016;536
06.12.2016;543
07.12.2016;555
08.12.2016;549
09.12.2016;542
10.12.2016;535
11.12.2016;537
12.12.2016;549
13.12.2016;538
14.12.2016;533
15.12.2016;542
16.12.2016;531
17.12.2016;533
18.12.2016;537
19.12.2016;529
20.12.2016;530
21.12.2016;530
22.12.2016;538
23.12.2016;545
24.12.2016;543
25.12.2016;559
26.12.2016;566
27.12.2016;562
28.12.2016;553
29.12.2016;561
30.12.2016;574
31.12.2016;577
01.01.2017;558
02.01.2017;559
03.01.2017;516
04.01.2017;522
05.01.2017;535
06.01.2017;545
07.01.2017;544
08.01.2017;544
09.01.2017;538
10.01.2017;532
11.01.2017;521
12.01.2017;540
13.01.2017;540
14.01.2017;545
15.01.2017;543
16.01.2017;539
17.01.2017;541
18.01.2017;545
19.01.2017;542
20.01.2017;540
21.01.2017;544
22.01.2017;548
23.01.2017;538
24.01.2017;523
25.01.2017;530
26.01.2017;528
27.01.2017;521
28.01.2017;519
29.01.2017;514
30.01.2017;511
31.01.2017;513
01.02.2017;505
02.02.2017;501
03.02.2017;499
04.02.2017;496
05.02.2017;474